This demonstration page uses our WeatherBlox Daily Observations layout. Learn more.

Left ArrowRight Arrow

38.80484, -77.04692

Hourly Observations for April 10, 2021

Temp ( °F °C ) Dew Point ( °F °C ) Humidity (%) Winds ( mph kmh ) Pressure ( in mb ) Visibility ( mi km ) Precip ( " mm )
12:52 am 00:52 Cloudy 57 13.9 52 11.1 83 83 NNE 6 9 30.06 1018 10 16 N/A
1:52 am 01:52 Cloudy 56 13.3 52 11.1 87 87 NE 6 9 30.05 1018 9 14 N/A
2:43 am 02:43 Cloudy 56 13.3 53 11.7 90 90 NNE 5 7 30.04 1017 7 11 N/A
2:52 am 02:52 Cloudy 56 13.3 53 11.7 90 90 NE 7 11 30.04 1017 8 13 N/A
3:34 am 03:34 Cloudy 56 13.3 53 11.7 90 90 NE 9 15 30.03 1017 7 11 N/A
3:52 am 03:52 Cloudy with Mist and Fog 55 12.8 53 11.7 93 93 NE 12 19 30.00 1016 6 10 N/A
4:52 am 04:52 Cloudy 55 12.8 53 11.7 93 93 NE 8 13 30.01 1016 7 11 N/A
5:52 am 05:52 Cloudy 55 12.8 53 11.7 93 93 E 5 7 30.01 1016 7 11 N/A
6:52 am 06:52 Cloudy with Mist and Fog 55 12.8 53 11.7 93 93 NE 7 11 30.01 1016 3 5 N/A
7:21 am 07:21 Cloudy with Mist and Fog 55 12.8 53 11.7 93 93 ENE 8 13 30.02 1017 3 4 N/A
7:23 am 07:23 Cloudy with Drizzle 55 12.8 53 11.7 93 93 ENE 8 13 30.02 1017 3 5 0.00 0.00
7:26 am 07:26 Cloudy with Drizzle 55 12.8 53 11.7 93 93 NE 9 15 30.01 1016 3 4 0.00 0.00
7:40 am 07:40 Cloudy with Drizzle 55 12.8 53 11.7 93 93 NNE 8 13 30.01 1016 3 5 0.00 0.00
7:48 am 07:48 Cloudy with Drizzle 55 13 54 12 94 94 NNE 8 13 30.02 1017 3 4 0.00 0.00
7:52 am 07:52 Cloudy with Drizzle 55 12.8 53 11.7 93 93 NE 10 17 30.01 1016 2 3 0.00 0.00
7:55 am 07:55 Cloudy with Drizzle 55 12.8 53 11.7 93 93 NE 9 15 30.02 1017 2 3 0.00 0.00
8:01 am 08:01 Cloudy with Drizzle 55 12.8 53 11.7 93 93 NE 10 17 30.02 1017 3 5 0.00 0.00
8:13 am 08:13 Cloudy with Mist and Fog 55 12.8 53 11.7 93 93 ENE 9 15 30.02 1017 4 6 0.00 0.00
8:23 am 08:23 Cloudy with Mist and Fog 55 12.8 54 12.2 96 96 ENE 7 11 30.02 1017 3 4 0.00 0.00
8:34 am 08:34 Cloudy with Mist and Fog 55 12.8 54 12.2 96 96 ENE 7 11 30.01 1016 3 5 0.00 0.00
8:36 am 08:36 Cloudy with Mist and Fog 55 12.8 54 12.2 96 96 E 7 11 30.01 1016 3 5 0.00 0.00
8:52 am 08:52 Cloudy with Mist and Fog 56 13.3 54 12.2 93 93 E 7 11 30.01 1016 4 6 0.00 0.00
9:07 am 09:07 Cloudy with Mist and Fog 56 13.3 54 12.2 93 93 E 3 6 30.01 1016 4 6 N/A
9:52 am 09:52 Cloudy with Mist and Fog 57 13.9 54 12.2 90 90 SSE 3 6 30.01 1016 4 6 N/A
10:52 am 10:52 Cloudy 59 15 55 12.8 87 87 N N/A 30.02 1017 7 11 N/A
11:14 am 11:14 Cloudy 59 15 55 12.8 87 87 SSE 3 6 30.02 1017 8 13 N/A
11:41 am 11:41 Cloudy 60 15.6 55 12.8 84 84 N N/A 30.01 1016 8 13 N/A
11:52 am 11:52 Cloudy 61 16.1 55 12.8 81 81 N N/A 30.00 1016 9 14 N/A
12:52 pm 12:52 Cloudy 63 17.2 56 13.3 78 78 SSW 5 7 29.97 1015 10 16 N/A
1:20 pm 13:20 Mostly Cloudy 66 18.9 56 13.3 70 70 VRB 3 6 29.95 1014 10 16 N/A
1:52 pm 13:52 Mostly Cloudy 67 19.4 58 14.4 73 73 SE 5 7 29.93 1014 10 16 N/A
2:52 pm 14:52 Mostly Cloudy 71 21.7 58 14.4 63 63 undefined N/A 29.89 1012 10 16 N/A
3:52 pm 15:52 Mostly Cloudy 72 22.2 58 14.4 61 61 ENE 3 6 29.86 1011 10 16 N/A
4:52 pm 16:52 Cloudy 73 22.8 57 13.9 57 57 S 6 9 29.83 1010 10 16 N/A
5:52 pm 17:52 Cloudy 72 22.2 58 14.4 61 61 ENE 3 6 29.80 1009 10 16 N/A
6:52 pm 18:52 Cloudy 70 21.1 58 14.4 66 66 E 12 19 29.78 1008 10 16 N/A
7:52 pm 19:52 Mostly Cloudy 67 19.4 55 12.8 66 66 E 12 19 29.77 1008 10 16 N/A
8:52 pm 20:52 Mostly Cloudy 65 18.3 55 12.8 70 70 SE 6 9 29.75 1008 10 16 N/A
9:52 pm 21:52 Cloudy 64 17.8 56 13.3 75 75 SSE 7 11 29.76 1008 10 16 N/A
10:52 pm 22:52 Cloudy 65 18.3 56 13.3 73 73 SSE 7 11 29.73 1007 10 16 N/A
11:52 pm 23:52 Cloudy with Light Rain 65 18.3 57 13.9 76 76 SE 5 7 29.71 1006 10 16 0.00 0.00

Powered by AerisWeather